sat.trackr.live / text

‹ back to catalog

STARLINK-11667 [DTC]

NORAD 63550 · 2025-075C

PAYLOAD ACTIVE UNKNOWN

§ Identity

Operator
Country
US
Launch date
2025-04-13
Launch site
AFETR
Launch vehicle
Mass (kg)
RCS (m²)

Purposes: comms

External: N2YO · Heavens-Above · Gunter

§ Orbital elements

Epoch: 2026-05-25T00:55:24.024000Z

Period
91.66 min
Inclination
43.0004°
Eccentricity
0.0001346
Mean motion
15.70964241 rev/d
Perigee alt
355.2 km
Apogee alt
357.0 km
Semi-major
6,734.3 km
B*
1.1956e-3
RAAN
53.8349°
Arg perigee
231.3227°
Mean anomaly
128.7520°
Rev number
6,525

§ Raw data

STARLINK-11667 [DTC]1 63550U 25075C   26145.03847250  .00156703  00000+0  11956-2 0  99902 63550  43.0004  53.8349 0001346 231.3227 128.7520 15.70964241 65250

JSON: /api/v1/satellites/63550 · /tle

For live sub-satellite position, see the globe view (requires WebGL).

§ Visibility from observer

Set your observer location to see the next 7 days of passes ≥ 10°. The values pass through the URL so the page stays shareable.

No JS? Fill the form by hand. The geolocation button needs JavaScript.